カタログに戻る

IRIDIUM 33 DEB

運用中PO
NORAD 36483·DEBRIS·🇺🇸 United States

打ち上げ Sep 14, 1997 から Baikonur Cosmodrome

Loading…

次のパス (今後24時間)

TLE

最新Source: Space-Track

元期: Sep 11, 2026, 10:05 UTC

1 36483U 97051VZ  26254.42033527  .00000907  00000-0  24574-3 0  9992
2 36483  86.3766 295.7071 0007082 313.2576  46.8035 14.46672415690873

AllMySatでIRIDIUM 33 DEBをリアルタイム追跡

Download on the App Store